GFSGL_925_thetae_276.txt.gz
Theta_e
328 329 333 338 341 340 342 342 342 342 340 337 335 332 330 329 328 329 329 328 332 333 332 330 331 327 325 322 322 321 320 320 321 321 322 325 324 320 318 320 320 320 319
325 327 329 333 338 339 337 338 342 339 338 336 335 333 331 330 327 328 329 328 331 333 333 331 330 328 328 324 323 322 322 324 323 323 319 321 320 320 319 321 321 318 319
325 325 326 328 330 334 338 339 336 339 339 337 336 335 332 330 328 331 330 328 330 330 332 331 329 328 327 324 325 324 325 325 325 320 319 319 318 319 321 322 322 321 319
318 323 324 326 327 330 332 335 334 334 338 337 335 333 332 331 328 329 330 330 332 333 333 332 330 328 329 328 327 326 325 325 325 322 320 319 320 321 319 321 321 321 320
315 319 324 325 324 325 327 330 336 333 333 335 336 336 333 330 329 329 330 331 332 333 331 330 327 327 328 328 326 326 326 327 326 325 323 321 321 321 323 322 321 321 322
315 318 323 323 321 321 323 324 327 333 332 333 334 333 331 329 329 329 330 333 334 333 333 331 330 326 327 326 323 324 326 328 327 325 325 325 324 324 322 321 321 321 321
313 316 322 322 319 318 318 319 321 324 328 331 329 331 334 334 334 333 333 332 334 334 333 331 330 329 328 326 324 321 324 326 327 328 328 327 327 326 322 324 322 322 321
312 314 319 321 319 318 317 318 320 321 324 325 328 330 331 330 333 332 332 332 332 332 334 333 330 329 329 329 328 326 324 325 324 324 328 329 329 327 323 323 322 321 320
312 313 314 319 321 318 317 318 320 321 323 324 324 325 329 331 330 331 332 332 331 331 333 334 334 331 329 330 328 328 326 326 325 323 323 326 327 323 321 320 320 320 321
312 313 313 315 318 320 317 318 319 319 319 320 322 324 326 328 330 331 332 332 331 330 331 332 333 332 333 331 329 328 328 327 326 324 322 322 322 319 313 314 319 319 320
310 312 313 313 315 320 319 318 318 318 319 320 322 323 325 330 330 331 331 332 330 331 331 331 331 331 331 330 328 327 326 327 327 325 323 322 319 318 318 314 316 317 318
309 310 312 313 314 317 319 318 317 317 317 319 320 321 323 326 327 329 330 331 331 332 332 332 332 330 330 329 328 327 328 327 327 326 325 323 321 321 321 319 317 317 316
309 309 311 313 314 317 318 318 316 316 316 316 317 319 320 322 320 320 324 328 330 327 331 332 329 328 328 325 326 325 325 323 325 325 324 324 324 324 321 318 317 316 317
309 309 310 312 314 315 317 316 315 315 315 315 316 317 316 317 318 316 315 319 321 326 328 329 329 328 327 326 323 321 320 322 323 324 323 321 323 321 317 315 315 315 315
308 308 309 311 313 314 316 315 314 312 310 312 313 312 311 313 311 311 313 313 316 319 320 320 321 323 321 322 322 322 319 319 320 322 322 322 318 315 313 314 313 313 314
309 309 310 310 313 313 315 308 307 307 305 307 308 308 306 306 307 308 309 310 311 313 315 315 315 316 317 318 317 316 316 318 317 317 317 316 312 310 310 310 310 310 311
310 310 311 311 312 313 312 312 313 307 308 307 307 307 307 307 307 308 308 310 311 312 313 312 311 311 311 312 312 312 310 310 311 310 311 309 308 308 309 308 309 309 307
310 309 308 310 311 311 311 309 310 312 312 309 308 307 308 308 309 309 309 310 313 313 312 311 310 309 309 309 308 308 307 307 307 307 308 308 308 309 307 307 306 306 306
309 309 310 311 311 311 311 310 310 310 312 311 307 306 306 307 307 308 309 310 312 312 313 312 311 311 311 310 309 308 308 308 309 309 309 310 308 307 307 306 306 305 306
308 308 306 309 309 309 311 310 310 310 312 311 309 308 307 307 306 307 307 307 307 307 307 309 309 309 310 310 310 310 309 309 309 310 309 309 308 307 307 307 306 307 306
307 307 306 307 309 307 308 310 310 311 311 308 307 304 304 306 305 306 308 308 308 308 308 310 309 308 308 308 308 308 308 308 308 308 307 307 306 305 305 305 306 305 304
306 306 306 307 307 308 308 307 307 311 310 308 304 303 303 306 306 305 305 305 305 306 306 307 307 306 306 306 306 307 307 307 306 306 305 304 302 301 301 302 302 302 302
302 305 306 307 307 308 307 308 310 309 308 307 304 303 304 302 301 301 302 303 304 304 304 304 304 304 304 304 303 303 304 305 304 302 301 299 299 299 299 300 301 301 302
303 302 304 307 307 309 309 307 305 305 305 303 302 301 299 298 298 299 300 301 302 302 302 302 303 303 303 302 301 301 301 301 301 301 300 299 298 297 299 300 301 302 302
304 303 305 308 308 306 305 304 304 303 302 300 298 297 297 297 298 299 300 300 301 301 302 302 302 302 302 302 302 300 300 300 302 301 301 300 299 297 298 299 300 301 300
303 305 304 304 303 303 301 300 300 299 298 297 297 296 296 297 298 298 300 300 301 301 301 301 301 301 300 299 299 300 300 300 301 301 301 301 300 300 300 300 300 299 299

GFSGL_925_thetae_279.txt.gz
Theta_e
328 328 330 332 336 340 339 342 344 344 344 343 343 343 341 338 337 337 336 336 334 333 333 333 336 333 331 327 325 323 322 321 322 322 323 329 329 328 321 322 322 323 322
325 326 328 329 330 335 335 341 337 343 343 343 340 339 338 336 337 334 335 334 334 333 335 334 334 333 333 329 326 324 323 322 323 326 324 326 327 325 323 324 324 322 322
319 321 326 326 328 329 333 336 337 338 340 339 338 337 337 337 336 336 334 334 333 333 334 335 335 333 333 330 326 325 325 326 327 325 324 323 322 323 323 325 325 325 324
318 318 321 326 324 324 327 330 335 336 335 335 338 338 338 338 335 335 335 334 333 332 332 333 334 334 332 332 330 326 326 326 327 327 322 322 322 322 323 324 327 328 324
317 317 318 325 324 322 322 324 327 332 336 335 334 337 337 337 335 334 333 332 332 332 333 332 333 333 332 331 330 328 327 328 327 327 325 323 323 324 325 327 325 325 326
317 317 317 320 324 320 320 320 321 323 327 333 334 335 335 334 336 332 330 333 333 333 333 334 334 333 332 330 330 328 328 330 328 328 327 327 325 326 326 325 325 324 325
315 316 316 317 323 320 319 318 320 322 323 324 327 333 332 334 334 334 330 329 330 334 336 336 335 333 331 329 328 327 327 327 328 330 332 332 331 329 328 327 327 326 326
313 315 316 315 318 320 319 318 319 321 322 323 324 324 327 330 331 330 332 333 334 335 336 335 335 334 332 330 327 327 326 325 323 326 329 330 331 332 330 328 328 327 325
312 313 315 315 315 318 321 318 319 320 321 321 320 321 324 326 327 330 331 331 331 333 334 335 334 334 333 332 330 327 326 325 324 323 325 326 330 330 328 325 322 323 324
311 312 313 315 315 316 319 320 319 319 319 318 318 320 322 324 326 329 329 331 332 331 332 333 332 332 333 334 331 330 329 326 325 325 325 325 326 327 326 323 321 323 323
311 311 312 313 315 316 317 319 320 319 318 319 320 321 322 324 329 327 329 329 332 333 333 332 332 332 332 332 332 329 329 328 326 326 324 323 323 322 323 319 319 321 322
310 311 311 311 312 314 316 318 320 319 318 318 319 319 317 321 324 323 322 324 324 326 330 332 332 332 332 331 331 332 331 330 327 326 325 323 323 322 320 320 322 320 319
310 310 310 310 312 312 316 317 319 319 317 315 314 314 315 318 320 321 318 318 321 321 324 329 330 332 332 330 329 329 329 326 326 326 325 323 323 323 322 323 323 320 319
311 310 310 311 310 311 313 316 319 319 315 314 314 314 315 317 319 314 311 313 316 318 321 324 327 331 330 329 328 327 324 322 326 326 325 325 324 325 324 322 321 319 318
311 311 311 311 310 311 312 314 318 317 315 315 315 316 316 317 315 310 308 309 310 314 315 320 319 324 327 326 323 324 322 322 323 324 324 324 322 322 321 320 320 317 315
311 311 311 311 311 311 313 314 314 312 311 311 310 310 313 310 309 308 309 309 310 311 313 316 317 318 321 322 322 321 320 321 321 321 322 322 322 321 319 317 316 314 315
311 312 312 311 311 312 313 313 315 308 308 307 310 309 308 309 309 310 310 311 312 312 313 314 314 314 315 318 319 319 317 317 318 319 319 319 319 318 314 312 313 313 312
310 309 311 311 311 311 312 313 311 309 313 313 309 310 309 309 309 309 310 311 313 313 313 311 311 310 310 311 312 313 312 311 311 312 312 312 312 311 310 310 309 309 308
309 310 309 309 311 311 310 312 312 311 311 313 313 308 309 310 309 308 309 310 310 310 313 312 312 311 310 310 309 308 308 308 308 308 308 308 308 308 308 308 308 308 308
308 308 308 308 309 311 311 310 312 311 311 312 312 312 311 310 310 310 308 308 308 308 309 311 311 310 311 312 311 310 309 310 310 310 310 310 310 310 310 310 310 308 307
307 307 308 308 308 310 310 309 310 311 311 311 311 308 308 308 307 308 308 307 307 307 307 309 310 308 309 309 309 310 310 310 310 310 309 309 309 308 308 307 308 308 308
304 303 305 308 308 308 309 307 307 309 310 310 309 305 305 306 306 306 305 306 305 305 306 306 307 306 307 307 308 308 308 309 308 308 307 307 306 306 306 306 306 306 305
302 302 304 306 308 308 309 308 309 306 309 307 305 304 302 302 302 301 303 304 304 304 303 304 304 304 305 305 305 305 306 306 305 305 305 303 302 301 301 302 302 303 303
304 304 303 307 309 308 309 307 305 304 303 301 300 299 299 299 300 301 301 302 302 302 303 303 303 304 303 302 302 303 302 302 302 303 302 300 299 300 301 301 302 302 302
303 303 306 307 308 306 305 303 301 299 299 298 298 298 298 299 300 300 300 302 302 302 302 302 302 302 301 302 301 301 300 302 303 302 301 301 299 299 301 303 303 303 303
301 301 302 301 301 300 299 299 298 297 297 297 297 298 298 299 300 300 300 301 302 302 301 301 301 300 299 300 300 300 301 302 302 302 302 302 301 301 300 300 300 300 300

GFSGL_925_thetae_285.txt.gz
Theta_e
320 324 327 326 328 327 329 334 337 337 337 342 344 347 345 349 349 347 346 345 343 343 342 340 340 339 339 336 334 331 329 325 323 323 329 330 329 327 326 325 324 319 318
319 319 318 321 326 324 323 326 330 338 335 336 341 342 342 343 343 342 342 342 341 339 338 337 338 337 337 337 335 333 331 326 324 322 330 329 327 327 326 323 321 319 324
316 318 318 318 318 324 323 321 323 326 335 335 335 340 340 340 340 340 339 338 337 334 334 336 337 336 336 337 335 332 331 326 326 328 330 328 328 328 327 325 323 320 324
314 315 316 317 318 318 323 321 321 321 323 333 335 334 336 337 337 337 337 337 336 335 334 334 334 335 335 334 335 333 330 329 325 326 328 327 325 326 325 321 320 319 324
313 313 313 314 316 317 317 321 319 320 322 322 325 333 333 334 334 336 336 336 336 336 335 334 332 334 334 334 335 334 332 329 329 328 328 326 323 323 322 322 323 327 326
312 313 313 313 314 314 317 320 319 321 320 321 323 324 327 333 331 331 332 333 334 335 334 332 332 332 333 333 333 334 333 331 329 329 328 327 325 323 322 323 322 323 327
313 312 313 313 313 313 314 318 321 320 319 320 321 322 324 324 325 327 330 330 331 332 332 333 335 334 334 333 331 331 333 332 331 329 329 328 327 327 324 323 324 326 328
310 310 311 312 313 313 313 314 319 320 320 319 317 316 320 323 323 326 326 327 328 329 329 330 330 331 331 330 331 333 331 331 331 331 330 329 327 326 328 326 326 327 327
309 309 309 310 311 312 314 314 313 317 320 319 320 319 318 319 320 321 323 327 327 328 329 329 330 330 330 332 333 333 333 333 332 331 330 329 329 326 322 325 328 327 324
309 309 310 310 310 311 311 311 313 314 316 318 320 321 319 318 318 320 323 326 322 320 322 325 327 328 330 331 332 333 332 333 332 331 329 329 328 326 324 324 326 326 324
309 309 310 310 310 309 310 310 311 311 315 316 317 317 318 318 316 319 322 323 320 317 317 319 321 324 328 331 331 332 332 332 331 330 329 328 327 325 325 323 322 325 323
310 310 310 311 312 312 311 311 312 312 311 312 315 317 317 318 317 320 322 321 318 315 315 316 318 321 322 327 329 330 331 332 331 331 329 328 327 328 326 325 324 323 322
311 311 310 312 311 312 313 313 313 312 311 314 313 314 316 317 318 319 319 318 315 315 314 314 315 317 318 324 326 328 329 330 327 329 328 328 328 328 327 324 323 323 322
310 310 311 310 311 312 312 312 313 312 312 312 314 313 313 314 315 312 314 313 313 313 312 313 314 317 319 321 323 326 327 329 326 326 327 327 327 326 324 322 320 321 321
310 310 310 311 311 311 311 312 312 312 312 313 313 313 313 313 313 310 308 310 312 311 311 313 314 316 316 318 320 323 324 323 323 325 324 324 323 323 324 322 320 319 320
309 309 309 308 308 310 311 311 312 311 312 312 312 312 311 311 312 311 309 312 311 312 312 312 314 314 314 313 314 316 320 322 323 324 324 323 323 323 321 321 321 321 320
308 307 308 309 309 310 310 310 311 311 311 310 309 307 309 311 311 310 309 310 311 313 312 312 312 312 311 310 310 312 314 318 321 322 323 323 323 322 320 320 320 320 319
308 307 307 308 308 309 309 310 310 310 310 311 310 308 309 310 310 311 309 309 311 311 312 312 312 311 310 309 308 309 311 313 316 319 321 322 322 322 320 319 318 318 317
305 306 306 305 307 308 308 308 310 309 310 311 311 311 310 309 309 307 309 309 309 309 310 310 311 311 310 310 309 308 308 309 311 312 315 315 316 316 315 315 315 315 314
303 302 302 304 304 305 306 307 309 309 308 309 309 311 311 309 309 308 309 309 308 308 309 310 309 309 309 310 310 310 310 309 309 309 309 311 311 311 310 310 311 310 311
301 300 301 302 304 306 306 307 308 308 308 307 306 308 309 309 309 308 307 307 306 306 307 308 308 308 308 308 309 309 308 309 310 310 310 310 310 309 309 309 309 308 308
300 300 301 302 303 304 305 307 306 307 307 304 303 305 307 306 306 306 306 305 305 305 305 306 306 306 306 307 307 307 307 307 307 308 308 308 308 308 308 308 308 308 308
302 303 303 303 303 304 306 305 304 303 301 302 302 302 303 303 303 303 304 303 303 304 304 304 304 303 303 304 305 305 305 304 304 306 306 306 306 306 306 306 306 307 307
301 303 305 303 302 302 301 300 299 300 300 300 300 301 301 301 302 302 302 302 303 303 302 302 302 302 303 302 302 302 303 303 303 303 304 304 304 304 304 304 304 305 304
299 299 299 299 299 299 298 298 298 298 299 300 300 300 301 301 302 301 301 302 301 300 299 299 299 300 300 301 301 302 302 302 301 301 302 303 302 302 302 302 303 303 303
297 297 297 297 297 297 297 298 298 299 299 299 299 300 300 300 299 299 301 299 298 297 296 297 298 300 300 300 302 303 303 303 303 302 302 302 302 302 303 303 303 303 303

GFSGL_925_thetae_291.txt.gz
Theta_e
314 314 315 315 315 316 316 319 322 320 319 326 333 333 334 339 342 345 345 344 342 343 343 341 341 340 339 339 338 338 336 334 326 330 328 324 326 326 329 331 331 331 328
312 312 312 312 313 313 313 314 316 320 320 320 323 328 332 333 337 341 343 343 343 343 343 342 342 341 340 337 336 337 338 336 333 326 331 324 324 325 328 330 330 329 324
311 311 311 311 311 312 312 312 313 317 320 320 320 320 326 331 333 335 337 340 341 341 341 340 339 334 333 334 334 335 334 335 335 329 327 324 328 328 328 328 327 324 323
311 312 312 311 312 312 312 313 313 314 319 319 321 319 320 323 329 331 332 334 336 337 337 338 336 334 334 333 333 334 334 334 333 330 326 325 328 327 327 325 323 323 321
309 309 310 310 310 311 311 312 313 313 315 321 321 320 318 319 322 324 328 330 331 333 334 335 335 336 335 333 333 332 333 333 332 329 325 325 324 326 325 325 324 323 322
309 308 307 308 309 309 310 310 312 313 313 315 320 319 318 315 319 323 324 325 328 329 330 331 333 334 333 332 332 332 332 333 332 329 327 324 324 325 326 325 324 322 319
307 307 308 308 308 309 309 309 309 310 311 312 313 315 317 318 318 318 320 320 320 322 325 328 329 330 330 331 331 332 332 332 331 331 330 328 326 326 324 325 325 324 320
307 307 308 308 308 309 309 309 310 309 309 309 311 312 315 316 317 318 319 318 318 319 323 325 326 327 328 328 329 328 329 330 331 331 330 330 330 331 330 327 324 323 321
308 308 308 308 309 309 309 310 310 310 310 310 310 310 311 314 315 315 315 316 318 317 317 323 321 319 321 321 323 324 325 326 328 327 329 330 330 331 330 329 324 321 322
308 309 308 309 309 309 310 310 311 311 311 311 311 311 310 310 311 312 312 314 315 316 316 319 320 314 313 317 320 321 323 324 325 328 326 329 330 330 329 328 329 325 323
307 307 308 309 309 310 310 310 310 311 311 311 311 311 311 311 310 309 309 311 315 316 317 319 319 314 312 312 313 316 317 318 319 322 326 328 328 330 329 329 328 328 325
308 308 308 308 310 310 309 310 310 311 310 310 311 311 311 310 311 311 310 311 311 315 316 318 316 312 312 313 314 313 315 316 316 318 323 326 327 328 329 329 329 328 326
308 308 309 310 309 309 309 310 309 310 310 310 310 310 310 310 310 311 311 311 312 314 315 314 313 312 313 314 314 314 313 314 315 318 321 321 325 328 328 328 328 328 326
308 309 309 308 309 308 308 307 307 308 309 309 308 309 310 309 310 310 312 312 311 311 312 312 312 312 313 313 313 313 314 315 316 317 320 322 324 326 328 328 326 326 326
308 308 307 307 307 307 307 307 308 309 308 308 308 309 309 308 310 310 310 311 310 310 309 309 309 310 310 311 311 310 311 311 313 315 317 319 322 324 326 327 326 325 324
307 306 306 306 305 305 305 306 306 306 306 307 307 308 308 309 310 309 308 310 310 308 308 309 309 309 311 311 310 310 308 309 309 311 314 318 320 322 323 324 324 324 322
304 303 303 302 302 302 303 303 302 302 304 304 305 306 308 309 309 309 307 308 309 309 306 307 308 310 310 310 310 308 307 308 308 307 309 313 318 320 321 321 322 321 321
301 300 300 300 300 300 300 300 301 303 303 304 304 305 308 308 307 307 308 307 306 306 307 307 310 311 311 311 310 308 306 307 308 307 308 309 312 317 319 318 319 320 319
300 300 300 300 300 300 299 300 300 302 302 304 305 306 307 306 306 305 306 303 305 306 307 309 310 310 310 310 310 309 308 309 309 309 309 309 310 311 316 318 318 320 319
300 301 301 301 301 301 301 301 302 303 303 304 304 304 302 303 304 306 306 305 305 306 307 308 309 309 309 308 308 308 308 309 309 308 309 309 309 310 311 314 316 316 316
300 300 302 302 302 301 301 303 303 304 305 305 304 303 304 305 304 305 305 306 307 307 307 307 307 307 306 306 306 306 307 307 307 307 307 308 308 309 309 310 312 313 312
300 301 301 300 303 302 302 303 302 302 302 301 302 302 303 303 304 303 304 304 304 304 304 305 305 304 303 303 303 304 304 305 305 305 305 307 307 308 308 308 309 310 309
299 299 299 299 300 300 300 300 300 300 300 301 301 301 301 302 302 302 303 302 302 301 301 302 302 301 301 302 302 302 302 302 302 302 303 305 306 307 307 307 307 307 307
298 298 298 298 298 299 299 299 299 299 299 299 299 300 300 301 301 300 299 299 299 298 299 299 300 300 300 301 301 301 301 301 301 301 302 303 305 305 306 307 307 307 307
298 298 298 298 298 298 298 298 298 297 298 298 298 298 298 297 297 296 296 296 297 297 298 299 299 299 300 301 302 302 302 302 301 301 301 302 303 304 304 305 306 305 305
298 298 298 298 298 297 297 297 297 296 296 297 296 296 296 296 295 294 294 295 297 296 297 298 299 300 302 303 302 303 303 302 302 302 302 302 302 302 303 304 304 304 304